SCOUT A R/B, 2967

Orbit data source: Space-Track

SCOUT A R/B, 2967 is space debris in LEO originally from a launch on Mon, 25 Sep 1967 UTC launched from the Air Force Western Test Range (AFWTR). Debris objects in space refer to the collection of defunct objects orbiting the Earth. Examples of debris include non-operational satellites, rocket bodies, and fragments generated from explosions, collisions, or faulty payload assembly.

Loading next visibility...
Identifier
2967, 1967-092B
Orbit
LEO
Country
Flag of USUS
Related business
Manufacturer
ABL
Mission
Spacecraft
Bus & Motor
ALTAIR, Unknown motor
Mass
33 kg wet, 33 kg dry
Launch date (UTC)
1967-09-25 (58 years ago)
Launch vehicle
Unknown
Launch site
Air Force Western Test Range (AFWTR)
Object type
Payload
Rocket body
Debris
Shape & HBR
Unknown
Radar Cross Section
Medium (>0.1 m² and <1 m²)

Expand to show TLE details & history
Last TLE update: 11 hours ago

TLE from 11 hours ago
0 SCOUT A R/B
1  2967U 67092B   26012.77921619  .00000143  00000-0  19727-3 0  9998
2  2967  89.2491  20.8751 0046215 189.8854 296.2835 13.52367995873927
Epoch: 2026-01-12T18:42Z
TLE epoch observation values (Epoch: 2026-01-12T18:42:04.278Z)
Latitude
54.39479°
Longitude
167.0429°
Altitude
1,057.496 km
Speed
7.336 km/s
True Right ascension
13h 19m 19s
True Declination
54° 14' 18"
Sunlit
Object was in daylight at epoch
Visualization orbit readout
Latitude
Unknown
Longitude
Unknown
Altitude
Unknown
Speed
Unknown
Apparent Right ascension
Unknown
Apparent Declination
Unknown
Sunlit
N/A
Visualization observer readout
Local Sidereal Time
06:40:36
Azimuth
Unknown
Elevation
Unknown
Doppler factor
Unknown
Orbital elements
Apogee altitude
1,094.985 km
Perigee altitude
1,026.229 km
Semi-major axis
7,438.744 km
Eccentricity
0.00462
Inclination
89.2491°
RAAN
20.8751°
Arg. of periapsis
189.8854°
True anomaly
295.80745°
Mean anomaly
296.2835°
Eccentric anomaly
296.0456°
Mean motion
3.38294 °/min
Orbital period
106.42 mins
BSTAR
0.00019727
Loading maneuver chart data...
Computing Atmospheric mass density...
Loading historical data...
Loading historical data...
Loading historical data...
Loading historical data...
Loading historical data...
Loading historical data...
Loading historical data...

Documentation

Showing up to 5 results
|